SCP
7 6 6 5 4 3 2 2 2 2 2 2 2 2 2 2 2 2 2 2 3 2 2 1 1 1 1 1 1 1 1 1 1 0 0 0 0 0 0 0 0 1 1
6 5 5 4 4 3 2 2 2 2 2 3 4 4 2 2 2 2 2 2 2 2 1 1 1 1 1 1 1 1 1 1 1 1 0 0 0 0 0 0 1 1 1
4 4 4 3 3 2 2 2 2 2 2 4 6 5 2 2 2 2 2 2 2 1 1 1 1 1 1 1 1 1 1 1 1 1 1 0 0 0 0 0 1 1 1
4 4 4 3 2 2 2 2 2 2 2 3 4 3 2 2 2 1 1 2 1 1 1 1 1 1 1 1 1 1 1 1 1 1 1 1 1 0 0 1 1 1 1
4 4 3 3 3 3 3 3 2 2 2 2 2 2 2 2 1 1 1 1 1 1 1 1 1 1 1 1 1 1 1 1 1 1 1 1 1 0 1 1 1 1 1
4 3 3 3 3 3 3 3 2 2 2 2 2 2 1 1 1 1 1 1 1 1 1 1 1 1 1 1 1 1 1 1 1 1 1 1 1 1 1 1 1 1 0
3 3 3 3 4 3 3 3 3 2 2 2 2 2 2 1 1 1 1 1 1 1 2 2 2 2 2 2 1 1 1 1 1 1 1 1 1 1 1 1 1 1 1
3 3 3 3 4 4 4 3 3 3 2 2 2 2 2 1 1 1 1 1 1 1 2 2 2 2 2 2 2 1 1 1 1 1 1 1 1 1 1 1 1 1 1
3 3 2 3 4 4 4 4 3 3 3 2 2 2 2 2 2 1 1 1 1 1 1 1 1 1 1 1 1 1 1 1 0 0 0 1 1 1 1 1 1 1 1
3 2 2 3 4 4 4 4 3 3 3 3 3 3 2 2 2 1 1 1 1 1 1 1 1 1 1 1 1 1 1 1 1 0 0 1 1 1 1 1 1 1 0
3 2 2 3 3 4 3 3 3 3 3 3 3 3 3 2 2 1 1 1 1 1 1 1 1 0 0 0 0 0 0 0 0 1 1 1 1 1 1 0 0 0 0
3 2 3 3 3 3 3 2 2 2 2 2 2 2 2 2 1 1 1 0 1 1 1 1 0 0 0 0 0 0 0 0 0 1 1 1 1 1 0 0 0 0 0
3 3 3 3 3 3 2 2 2 2 1 1 2 2 2 1 1 1 0 0 0 0 1 0 0 0 0 0 0 0 0 0 0 1 1 0 0 0 0 0 0 0 0
3 3 3 3 3 2 2 2 2 1 1 1 1 1 1 1 1 0 0 0 0 0 0 0 0 0 0 0 0 0 0 0 0 0 0 0 0 0 0 0 0 0 0
4 4 4 3 3 2 2 1 1 1 1 1 1 1 1 1 1 0 0 0 0 0 0 0 0 0 0 0 0 0 0 0 0 0 0 0 0 0 0 0 0 0 0
5 5 5 4 2 1 1 1 1 1 0 0 0 1 1 0 0 0 0 0 0 0 0 0 0 0 0 0 0 0 0 0 0 0 0 0 0 0 0 0 0 0 0
6 6 5 4 2 1 1 1 0 0 0 0 0 0 0 0 0 0 0 0 0 0 0 0 0 0 0 0 0 0 0 0 0 0 0 0 0 0 0 0 0 0 0
6 6 6 4 2 1 1 1 1 1 0 0 0 0 0 0 0 0 0 0 0 0 0 0 0 0 0 0 0 0 0 0 0 0 0 0 0 0 0 0 0 0 0
5 5 5 4 2 1 1 1 1 1 0 0 0 0 0 0 0 0 0 0 0 0 0 0 0 0 0 0 0 0 0 0 0 0 0 0 0 0 0 0 0 0 0
3 4 4 4 3 2 1 1 1 0 0 0 0 0 0 0 0 0 0 0 0 0 0 0 0 0 0 0 0 0 0 0 0 0 0 0 0 0 0 0 0 0 0
2 2 3 3 3 2 1 0 0 0 0 0 0 0 0 0 0 0 0 0 0 0 0 0 0 0 0 0 0 0 0 0 0 0 0 0 0 0 0 0 0 0 0
1 1 2 2 2 1 0 0 0 0 0 0 0 0 0 0 0 0 0 0 0 0 0 0 0 0 0 0 0 0 0 0 0 0 0 0 0 0 0 0 0 0 0
0 1 1 1 1 0 0 0 0 0 0 0 0 0 0 0 0 0 0 0 0 0 0 0 0 0 0 0 0 0 0 0 0 0 0 0 0 -0 0 0 0 0 0
0 0 0 0 0 0 0 0 0 0 0 0 0 0 0 0 0 0 0 0 0 0 0 0 0 0 0 0 0 0 0 0 0 0 0 0 0 0 0 0 0 0 0
0 0 0 0 0 0 0 0 0 0 0 0 0 0 0 0 0 0 0 0 0 0 0 0 0 0 0 0 0 0 0 0 0 0 0 0 0 0 0 0 0 0 0
0 0 0 0 0 0 0 0 0 0 0 0 0 0 0 0 0 0 0 0 0 0 0 0 0 -0 -0 -0 0 0 0 0 0 0 0 0 0 0 0 0 0 0 0
Wind_Speed
6 5 5 4 4 4 4 4 3 3 3 3 3 3 3 2 2 2 2 2 2 2 2 2 3 2 2 2 1 2 2 3 3 3 2 1 1 1 1 2 2 2 2
6 5 5 4 4 4 3 3 3 3 3 3 3 3 3 2 2 2 2 2 2 2 2 1 2 1 1 1 1 2 2 2 3 3 2 1 1 1 1 2 2 2 2
5 5 4 4 4 4 3 3 3 3 3 3 3 3 2 2 2 2 2 1 1 2 1 1 2 1 1 1 1 1 1 1 2 2 2 1 1 0 0 0 0 0 1
5 5 4 4 4 4 3 3 3 3 3 3 2 2 2 2 1 1 1 1 1 1 1 1 1 2 2 2 1 1 1 1 1 1 1 1 1 1 1 0 1 1 1
6 5 4 4 3 3 3 3 3 3 3 3 3 2 1 1 1 1 1 1 1 0 1 1 1 0 0 1 1 2 2 1 1 1 0 0 1 1 0 0 1 1 1
6 5 5 4 3 3 3 3 3 3 3 3 3 2 1 1 1 2 2 1 1 1 1 1 2 2 3 3 3 3 3 3 2 1 1 1 1 1 0 0 0 0 1
5 4 4 4 4 4 4 3 3 3 3 3 2 2 2 2 3 3 4 2 2 1 1 1 1 2 2 2 3 5 4 3 2 3 2 1 1 1 1 1 1 1 1
5 4 4 4 4 4 4 4 3 3 3 3 2 3 3 2 4 4 4 3 3 2 2 2 2 2 2 2 2 3 3 3 2 1 1 1 0 1 2 2 2 1 1
4 4 4 5 5 5 4 4 3 3 3 3 3 3 3 2 3 4 4 3 3 3 3 3 3 2 4 4 3 3 3 3 5 6 5 4 4 3 2 2 2 2 1
3 3 4 5 5 5 5 4 3 4 3 3 3 3 3 3 4 4 4 3 3 2 3 3 5 5 5 4 3 4 4 2 3 5 5 6 4 5 5 2 2 2 1
3 4 4 4 4 5 5 4 4 4 4 4 4 3 3 3 3 4 4 3 3 3 3 2 3 5 6 6 5 4 4 3 3 4 4 4 4 4 4 3 2 2 2
4 4 4 4 3 4 5 5 5 5 5 4 4 4 3 3 4 4 5 5 4 4 2 2 3 6 7 7 6 6 7 5 4 4 3 3 3 3 3 3 3 3 2
5 4 4 5 4 4 5 5 4 4 4 3 3 3 2 2 3 5 6 6 6 4 3 6 6 7 7 6 7 7 5 4 4 3 3 2 1 1 2 3 3 3 4
6 5 5 6 6 5 4 4 4 4 4 3 3 3 2 2 2 3 3 4 5 5 4 5 7 8 7 6 6 5 4 3 3 2 2 2 2 3 3 2 2 2 3
5 5 5 5 6 6 6 5 4 3 2 4 3 3 3 2 1 3 4 3 3 4 4 4 5 4 4 4 4 4 3 3 3 3 3 3 3 3 3 2 2 2 2
5 4 4 4 4 5 6 7 11 9 9 8 6 5 4 4 6 7 7 7 7 8 6 5 4 3 3 3 3 4 4 4 3 3 3 3 3 3 3 3 3 3 2
5 4 3 4 4 5 5 6 6 7 11 12 9 8 8 7 8 8 8 8 8 8 6 4 4 3 3 3 3 3 3 3 3 3 3 3 3 3 2 3 3 2 2
5 5 4 3 4 4 5 5 5 6 5 4 6 8 9 9 8 8 8 8 6 5 4 4 4 3 3 3 3 3 3 3 3 3 3 3 3 2 3 3 2 2 2
4 3 3 3 4 4 5 5 5 5 5 4 3 4 6 8 9 8 7 5 5 4 4 4 3 3 3 3 3 3 3 3 3 3 3 3 3 3 3 3 3 4 3
4 6 5 4 4 4 5 5 5 5 5 4 4 3 2 4 5 5 4 4 4 4 4 4 3 3 3 3 3 3 3 3 3 3 3 3 3 3 2 3 3 3 2
3 4 7 5 4 4 4 5 5 5 5 4 4 4 6 5 5 5 4 4 3 3 3 4 3 3 3 3 3 3 4 3 2 2 2 2 2 2 2 2 2 2 2
3 4 4 4 4 4 4 4 5 5 5 6 4 5 7 5 5 4 4 3 3 3 3 4 3 3 3 3 2 2 2 2 2 2 2 2 2 2 2 2 2 3 2
4 5 5 5 5 6 5 4 5 5 5 4 5 4 4 4 4 4 4 4 4 4 3 4 4 3 3 2 2 2 2 1 1 1 2 2 2 2 2 2 3 3 3
5 5 6 5 5 5 5 5 4 5 5 5 4 4 4 4 4 4 4 4 4 3 3 3 3 4 4 3 2 1 1 1 1 1 1 1 2 2 2 2 3 3 2
4 5 5 5 5 5 6 5 5 5 5 5 4 4 4 4 4 3 3 3 4 4 4 3 2 3 3 3 2 1 2 3 3 2 1 1 2 3 2 3 3 2 2
4 4 4 4 5 5 5 5 5 4 4 4 4 4 4 4 3 3 3 3 3 3 3 2 2 3 2 2 2 3 3 4 4 4 2 1 2 2 3 3 3 3 3
Wind_Direction
169 167 169 170 177 175 180 190 190 188 179 176 178 170 169 176 181 180 201 201 206 231 237 225 240 231 227 234 210 195 194 181 215 264 266 262 201 209 196 200 206 203 213
162 160 166 166 169 174 182 188 183 176 172 164 159 160 168 171 177 184 211 210 202 225 246 241 255 238 219 229 202 201 199 195 192 239 278 288 243 220 190 187 207 202 194
149 152 156 164 165 172 179 175 163 158 157 147 146 157 167 174 180 197 202 206 212 233 246 247 255 214 242 241 195 200 206 201 178 189 255 265 262 265 94 199 218 255 203
142 148 156 171 172 170 165 156 157 158 153 150 149 156 168 168 171 185 170 184 224 264 266 242 246 221 228 228 215 210 179 151 147 167 231 282 292 313 83 53 341 310 256
144 152 171 166 159 152 151 150 141 142 143 135 134 136 153 154 165 152 160 155 168 0 19 0 341 42 138 200 180 170 156 148 146 147 214 19 4 31 231 233 261 289 302
148 160 162 151 149 149 146 137 128 128 131 128 131 131 125 122 85 97 122 132 110 101 71 29 19 32 49 67 100 124 135 152 170 159 183 185 264 244 262 191 219 284 307
140 147 147 148 152 149 145 134 134 134 125 122 127 123 117 98 86 89 103 113 93 86 95 76 51 53 53 69 72 71 68 76 135 167 165 212 221 231 198 217 213 198 225
130 132 143 147 146 140 134 133 136 125 119 120 115 118 116 90 89 93 91 91 82 65 61 66 75 44 34 68 81 71 61 42 52 103 146 218 202 203 193 192 191 160 117
129 137 147 144 140 137 138 139 132 118 108 105 106 109 104 81 78 88 93 91 79 61 50 54 72 63 38 66 89 88 67 42 51 62 60 50 45 53 77 87 75 91 36
135 138 141 139 138 140 141 133 119 112 110 105 89 85 95 86 71 79 97 103 89 68 48 44 53 59 50 63 90 96 85 65 62 51 44 35 34 38 48 85 122 112 94
116 109 112 117 128 130 131 124 120 114 102 94 90 75 75 78 69 69 89 103 110 95 68 44 38 53 61 66 81 85 95 96 78 71 56 38 30 30 29 34 56 112 116
105 104 103 105 113 116 120 115 113 114 106 97 92 80 60 62 70 70 78 86 97 100 87 61 56 66 69 71 71 68 69 72 71 69 57 36 26 19 21 29 35 45 74
112 107 103 101 95 102 114 115 111 106 106 108 108 100 71 55 62 69 83 87 87 90 86 78 71 69 66 62 57 60 66 69 69 65 54 32 16 18 30 29 24 31 30
110 105 103 99 93 86 88 94 104 112 115 115 113 111 98 71 58 60 72 78 79 78 76 69 68 66 62 52 48 50 52 62 77 72 52 32 30 36 37 36 37 25 35
107 106 101 97 104 94 79 64 81 77 111 132 134 131 127 107 60 86 107 95 96 97 92 73 62 58 54 48 46 40 39 44 48 44 51 47 43 42 32 23 37 45 46
112 111 114 113 114 112 105 80 53 63 64 72 83 101 90 99 104 93 89 89 91 97 91 81 74 69 67 64 60 46 40 41 38 43 48 47 46 41 30 20 35 50 44
114 116 120 123 126 127 121 115 100 64 57 58 64 78 91 95 95 97 95 90 88 96 89 86 82 78 70 67 64 60 48 38 42 48 46 40 34 32 31 24 22 25 24
108 112 118 122 125 128 125 120 118 117 100 68 54 69 83 85 86 91 100 94 79 75 82 88 85 79 74 70 67 62 54 46 42 41 39 31 27 28 25 13 7 9 5
101 103 107 107 110 120 122 121 118 114 111 107 91 67 74 83 78 75 84 89 94 90 82 78 78 77 72 69 67 64 59 54 44 40 35 27 22 25 19 7 5 8 18
100 107 105 103 107 112 115 119 119 117 115 113 108 101 89 80 74 67 68 78 84 87 84 80 75 73 72 73 73 68 61 51 40 35 25 18 14 20 15 5 3 3 353
99 110 110 102 103 113 117 120 121 121 118 111 101 94 102 96 90 85 83 80 83 86 85 84 81 75 72 71 69 67 63 48 35 24 13 3 359 357 350 352 351 353 350
94 94 95 97 98 99 102 104 109 113 117 115 107 96 96 91 93 94 87 81 79 81 86 88 83 77 78 80 82 79 64 39 16 5 356 350 349 347 348 349 347 345 347
97 99 93 88 93 99 95 98 107 108 109 109 110 105 99 97 99 98 95 90 85 80 76 81 86 77 69 70 75 88 82 18 328 328 338 341 342 341 341 333 330 336 340
99 102 101 98 98 103 106 103 102 107 108 106 101 100 102 103 105 104 101 97 91 85 82 85 90 91 88 78 62 52 26 343 333 321 319 319 323 321 320 318 319 319 322
93 96 100 105 107 108 108 106 103 103 104 105 106 104 104 105 105 106 105 104 103 97 93 92 93 86 84 77 57 27 356 359 357 345 330 328 325 324 325 324 325 325 328
94 97 101 104 105 111 117 117 115 115 113 114 114 113 112 112 112 111 110 109 109 104 99 92 93 90 81 62 31 14 7 5 3 2 356 344 345 343 344 338 339 340 337